Regional Weather Roundup
Issued by NWS

Home | Current Version | Previous Version | Graphics & Text | Print | Product List | Glossary On
Versions: 1 2 3 4 5 6 7 8 9 10 11 12 13 14 15 16 17 18 19 20 21 22 23 24 25 26 27 28 29 30 31 32 33 34 35 36 37 38 39 40 41 42 43 44 45 46 47 48 49 50
000
ASUS45 KCYS 171110
RWRWY

WYOMING REGIONAL WEATHER ROUNDUP
NATIONAL WEATHER SERVICE CHEYENNE WY
500 AM MDT FRI APR 17 2015

NOTE:  "FAIR" INDICATES FEW OR NO CLOUDS BELOW 12,000 FEET
WITH NO SIGNIFICANT WEATHER AND/OR OBSTRUCTIONS TO VISIBILITY.

WYZ001-171200-
YELLOWSTONE NATIONAL PARK

CITY           SKY/WX    TMP DP  RH WIND       PRES   REMARKS
LK YELLOWSTONE   N/A     19  16  88 CALM      30.26R
W YELLOWSTONE  NOT AVBL

$$
WYZ002>013-054>058-071-098>099-171200-
NORTHERN WYOMING

CITY           SKY/WX    TMP DP  RH WIND       PRES   REMARKS
JACKSON        FAIR      30  25  80 N9        30.22S WCI  22
CODY           FAIR      30  25  80 CALM      30.23S
GREYBULL       FAIR      30  24  78 CALM      30.24F
WORLAND        FAIR      28  26  92 CALM      30.22F
SHERIDAN       FAIR      26  23  88 CALM      30.21S
BUFFALO        FAIR      38  25  59 W6        30.20F WCI  33
GILLETTE       FAIR      29  24  82 S5        30.21R WCI  24
HULETT         FAIR      32  30  93 S3        30.22S
NEWCASTLE      FAIR      36  32  87 N9        30.21F WCI  29

$$
WYZ014>020-022>026-101>103-171200-
CENTRAL WYOMING

CITY           SKY/WX    TMP DP  RH WIND       PRES   REMARKS
BIG PINEY      FAIR      23  20  88 NW9       30.20F WCI  13
PINEDALE       FAIR      21  21 100 NW6       30.20F WCI  14
DUBOIS         FAIR      23  21  93 NW5       30.24S WCI  17
LANDER         CLOUDY    35  31  85 NW3       30.21F
RIVERTON       MOCLDY    35  32  88 NW7       30.23F WCI  29
CASPER         CLOUDY    37  32  82 N6        30.20F WCI  32
DOUGLAS        CLOUDY    38  35  89 NW10      30.19F WCI  31

$$
WYZ021-027>030-104>119-171200-
SOUTHERN WYOMING

CITY           SKY/WX    TMP DP  RH WIND       PRES   REMARKS
EVANSTON       CLOUDY    30  27  88 N9        30.17F WCI  22
FORT BRIDGER   CLOUDY    32  32 100 CALM      30.20F FOG
ROCK SPRINGS   CLOUDY    33  27  78 N13       30.15F WCI  24
DIXON          CLOUDY    38  30  73 NE15G22   30.07F WCI  30
RAWLINS        LGT SNOW  33  30  88 NE16      30.13S VSB 3/4 WCI  23
SARATOGA       LGT SNOW  32  32 100 N7        30.11F WCI  26
LARAMIE        MIX PCPN  32  29  88 NE21G29   30.07F WCI  20
CHEYENNE       LGT SNOW  34  33  96 N20G25    30.08F FOG     WCI  23
TORRINGTON     LGT RAIN  43  38  82 NE20      30.11F
PINE BLUFFS    CLOUDY    39  37  93 NE15      30.08F WCI  31

$$


USA.gov is the U.S. government's official web portal to all federal, state and local government web resources and services.